Flag for Canada Weather past 2 weeks in Cape Dorset, Nunavut, Canada

Now
16 °F

Overcast.


Feels Like: 5 °F
Forecast: 17 / 27 °F
Wind: 8 mph from Northwest

Location: Coral Harbour

Current Time: Apr 28, 2015 at 3:45:03 AM

Latest Report: Apr 28, 2015 at 3:00 AM


Visibility: 15 mi

Pressure: 30.27 "Hg

Humidity: 86%

Dew point: 12 °F

Location of Cape DorsetLocation

Historic Weather in Cape Dorset — Graph

°F

Cape Dorset temperature yesterday

Maximum temperature yesterday: 27 °F (at 12:00 AM)
Minimum temperature yesterday: 9 °F (at 4:00 AM)
Average temperature yesterday: 19 °F

Past Weeks' High & Low Weather Summary

 TemperatureHumidityPressure
High54 °F (Apr 22, 11:00 AM)100% (Apr 26, 4:00 AM)30.39 "Hg (Apr 26, 4:00 AM)
Low-17 °F (Apr 14, 6:00 AM)13% (Apr 22, 11:00 AM)29.14 "Hg (Apr 13, 5:00 AM)
Average10 °F76%30.05 "Hg
* Reported Apr 13 2:00 AM — Apr 28 2:00 AM, Cape Dorset, Weather by CustomWeather, © 2015

Note: Actual official high and low records may vary slightly from our data, if they occured in-between our weather recording intervals... More about our weather records

Advertising

Cape Dorset weather history for previous 24 hours

 ConditionsComfort  
Time TempWeatherWind HumidityBarometerVisibility
2:00 AM
Tue, Apr 28
16 °FOvercast.6 mph86%30.27 "Hg15 mi
1:00 AM14 °FOvercast.5 mph79%30.28 "Hg15 mi
12:00 AM12 °FPassing clouds.7 mph79%30.28 "Hg15 mi
10:00 PM
Mon, Apr 27
10 °FPassing clouds.10 mph85%30.29 "Hg15 mi
9:00 PM16 °FPassing clouds.9 mph79%30.29 "Hg15 mi
8:00 PM18 °FScattered clouds.5 mph79%30.29 "Hg15 mi
7:00 PM19 °FPassing clouds.15 mph79%30.28 "Hg15 mi
6:00 PM19 °FScattered clouds.13 mph79%30.29 "Hg15 mi
5:00 PM21 °FPassing clouds.16 mph80%30.30 "Hg15 mi
4:00 PM23 °FPassing clouds.20 mph74%30.30 "Hg15 mi
3:00 PM23 °FScattered clouds.9 mph74%30.31 "Hg15 mi
2:00 PM21 °FScattered clouds.10 mph80%30.32 "Hg15 mi
1:00 PM21 °FPartly sunny.12 mph74%30.31 "Hg15 mi
12:00 PM21 °FPartly sunny.9 mph80%30.31 "Hg15 mi
11:00 AM21 °FPartly sunny.3 mph74%30.31 "Hg15 mi
10:00 AM19 °FScattered clouds.9 mph79%30.31 "Hg15 mi
8:00 AM19 °FLight snow. Partly sunny.16 mph86%30.30 "Hg15 mi
7:00 AM18 °FLight snow. Overcast.10 mph86%30.32 "Hg15 mi
6:00 AM16 °FOvercast.14 mph86%30.32 "Hg15 mi
5:00 AM12 °FLight snow. Overcast.3 mph85%30.31 "Hg15 mi
4:00 AM9 °FLight snow. Passing clouds.6 mph85%30.30 "Hg15 mi
3:00 AM14 °FLight snow. Overcast.9 mph85%30.31 "Hg15 mi
Weather by CustomWeather, © 2015

See weather overviewHow to use our weather pages